Back to catalog

FLOCK 4BE 17

AliveScienceSSO
NORAD 60492·PAYLOAD·🇺🇸 United States

Launched Aug 16, 2024 from Vandenberg Space Force Base

Loading…

Next Passes (next 24 hours)

TLE

FreshSource: CelesTrak SupGP

Epoch: Sep 14, 2026, 06:45 UTC

1 60492C 24149AT  26257.28133102  .00040525  00000+0  93543-3 0  2572
2 60492  97.3722 341.4879 0001545 302.7892 261.5483 15.42547134    11

Track FLOCK 4BE 17 in real time with AllMySat

Download on the App Store